This is the latest recevied weather packets stored in our database for station/object W0AVQ. If no packets are shown the sender has not sent any weather packets the latest 10 day(s).
| Time | Temp. | Humidity | Pressure | Rain* | Wind** | Luminosity | Snow |
|---|---|---|---|---|---|---|---|
| 1778130163 | 10° C | 85% | 1017.9 hPa | 0 mm | - | 0 W/m² | - |
| 1778129860 | 10° C | 85% | 1017.9 hPa | 0 mm | - | 0 W/m² | - |
| 1778129556 | 10.56° C | 84% | 1018 hPa | 0 mm | - | 0 W/m² | - |
| 1778129254 | 10.56° C | 84% | 1018.2 hPa | 0 mm | - | 0 W/m² | - |
| 1778128950 | 10.56° C | 84% | 1018 hPa | 0 mm | - | 0 W/m² | - |
| 1778128646 | 10.56° C | 84% | 1017.7 hPa | 0 mm | - | 0 W/m² | - |
| 1778128343 | 10.56° C | 83% | 1017.8 hPa | 0 mm | - | 0 W/m² | - |
| 1778128040 | 11.11° C | 82% | 1017.8 hPa | 0 mm | - | 0 W/m² | - |
| 1778127734 | 11.11° C | 82% | 1017.8 hPa | 0 mm | - | 0 W/m² | - |
| 1778127432 | 11.11° C | 81% | 1018 hPa | 0 mm | - | 0 W/m² | - |
| 1778127129 | 11.67° C | 81% | 1017.8 hPa | 0 mm | - | 0 W/m² | - |
| 1778126826 | 11.67° C | 81% | 1018 hPa | 0 mm | - | 0 W/m² | - |
| 1778126522 | 11.67° C | 80% | 1018 hPa | 0 mm | - | 0 W/m² | - |
| 1778126218 | 11.67° C | 80% | 1017.7 hPa | 0 mm | - | 0 W/m² | - |
| 1778125914 | 12.22° C | 80% | 1017.9 hPa | 0 mm | - | 0 W/m² | - |
| 1778125611 | 12.22° C | 79% | 1017.7 hPa | 0 mm | - | 0 W/m² | - |
| 1778125308 | 12.22° C | 79% | 1017.9 hPa | 0 mm | - | 0 W/m² | - |
| 1778125007 | 12.22° C | 79% | 1017.8 hPa | 0 mm | - | 0 W/m² | - |
| 1778124703 | 12.22° C | 78% | 1017.5 hPa | 0 mm | - | 0 W/m² | - |
| 1778124401 | 12.78° C | 79% | 1017.5 hPa | 0 mm | - | 0 W/m² | - |
| 1778124097 | 12.22° C | 78% | 1017.4 hPa | 0 mm | - | 0 W/m² | - |
| 1778123794 | 12.22° C | 78% | 1017.8 hPa | 0 mm | - | 0 W/m² | - |
| 1778123490 | 12.22° C | 78% | 1017.7 hPa | 0 mm | - | 0 W/m² | - |
| 1778123187 | 12.22° C | 78% | 1017.7 hPa | 0 mm | - | 0 W/m² | - |
| 1778122885 | 12.22° C | 77% | 1017.6 hPa | 0 mm | - | 0 W/m² | - |
* Rain latest hour (hover to see other rain measurements)
** Current wind speed in m/s (hover to see current wind gust speed)